owner,sensor,date,latitude,longitude,vertical_datum,wind_speed,wind_to_direction,wind_speed_of_gust,qcFlag 
TCOON,ioos:station:TCOON:006:1,2009-05-01T00:00:00Z,27.8217,-97.2040,0.0,7.0,106.0,10.6,'11111222,11111222,11111222' 
TCOON,ioos:station:TCOON:006:1,2009-05-01T02:00:00Z,27.8217,-97.2040,0.0,7.0,107.0,9.9,'11111222,11111222,11111222' 
TCOON,ioos:station:TCOON:006:1,2009-05-01T03:00:00Z,27.8217,-97.2040,0.0,5.1,121.0,9.4,'11111222,11111222,11111222' 
TCOON,ioos:station:TCOON:006:1,2009-05-01T04:00:00Z,27.8217,-97.2040,0.0,5.2,118.0,8.0,'11111222,11111222,11111222' 
TCOON,ioos:station:TCOON:006:1,2009-05-01T05:00:00Z,27.8217,-97.2040,0.0,5.5,135.0,9.1,'11111222,11111222,11111222' 
TCOON,ioos:station:TCOON:006:1,2009-05-01T06:00:00Z,27.8217,-97.2040,0.0,5.5,137.0,8.0,'11111222,11111222,11111222' 
TCOON,ioos:station:TCOON:006:1,2009-05-01T07:00:00Z,27.8217,-97.2040,0.0,7.0,144.0,9.6,'11111222,11111222,11111222' 
TCOON,ioos:station:TCOON:006:1,2009-05-01T08:00:00Z,27.8217,-97.2040,0.0,6.5,140.0,9.5,'11111222,11111222,11111222' 
TCOON,ioos:station:TCOON:006:1,2009-05-01T09:00:00Z,27.8217,-97.2040,0.0,5.6,139.0,8.3,'11111222,11111222,11111222' 
TCOON,ioos:station:TCOON:006:1,2009-05-01T10:00:00Z,27.8217,-97.2040,0.0,5.2,130.0,8.7,'11111222,11111222,11111222' 
TCOON,ioos:station:TCOON:006:1,2009-05-01T11:00:00Z,27.8217,-97.2040,0.0,4.8,136.0,8.0,'11111222,11111222,11111222' 
TCOON,ioos:station:TCOON:006:1,2009-05-01T12:00:00Z,27.8217,-97.2040,0.0,3.7,117.0,7.3,'11111222,11111222,11111222' 
TCOON,ioos:station:TCOON:006:1,2009-05-01T13:00:00Z,27.8217,-97.2040,0.0,5.4,127.0,8.2,'11111222,11111222,11111222' 
TCOON,ioos:station:TCOON:006:1,2009-05-01T14:00:00Z,27.8217,-97.2040,0.0,6.3,144.0,10.5,'11111222,11111222,11111222' 
TCOON,ioos:station:TCOON:006:1,2009-05-01T15:00:00Z,27.8217,-97.2040,0.0,6.7,147.0,9.0,'11111222,11111222,11111222' 
TCOON,ioos:station:TCOON:006:1,2009-05-01T16:00:00Z,27.8217,-97.2040,0.0,8.2,152.0,11.1,'11111222,11111222,11111222' 
TCOON,ioos:station:TCOON:006:1,2009-05-01T17:00:00Z,27.8217,-97.2040,0.0,8.0,153.0,9.9,'11111222,11111222,11111222' 
TCOON,ioos:station:TCOON:006:1,2009-05-01T18:00:00Z,27.8217,-97.2040,0.0,7.4,143.0,10.5,'11111222,11111222,11111222' 
TCOON,ioos:station:TCOON:006:1,2009-05-01T19:00:00Z,27.8217,-97.2040,0.0,6.4,125.0,8.7,'11111222,11111222,11111222' 
TCOON,ioos:station:TCOON:006:1,2009-05-01T20:00:00Z,27.8217,-97.2040,0.0,6.9,121.0,10.0,'11111222,11111222,11111222' 
TCOON,ioos:station:TCOON:006:1,2009-05-01T21:00:00Z,27.8217,-97.2040,0.0,5.8,106.0,9.3,'11111222,11111222,11111222' 
TCOON,ioos:station:TCOON:006:1,2009-05-01T22:00:00Z,27.8217,-97.2040,0.0,4.4,114.0,9.0,'11111222,11111222,11111222' 
TCOON,ioos:station:TCOON:006:1,2009-05-01T23:00:00Z,27.8217,-97.2040,0.0,4.9,97.0,7.5,'11111222,11111222,11111222' 
TCOON,ioos:station:TCOON:006:1,2009-05-02T00:00:00Z,27.8217,-97.2040,0.0,4.4,101.0,8.2,'11111222,11111222,11111222' 
TCOON,ioos:station:TCOON:006:1,2009-05-02T01:00:00Z,27.8217,-97.2040,0.0,4.1,107.0,8.7,'11111222,11111222,11111222' 
TCOON,ioos:station:TCOON:006:1,2009-05-02T02:00:00Z,27.8217,-97.2040,0.0,5.2,98.0,8.8,'11111222,11111222,11111222' 
TCOON,ioos:station:TCOON:006:1,2009-05-02T03:00:00Z,27.8217,-97.2040,0.0,4.5,99.0,8.0,'11111222,11111222,11111222' 
TCOON,ioos:station:TCOON:006:1,2009-05-02T04:00:00Z,27.8217,-97.2040,0.0,5.3,118.0,8.0,'11111222,11111222,11111222' 
TCOON,ioos:station:TCOON:006:1,2009-05-02T05:00:00Z,27.8217,-97.2040,0.0,7.5,137.0,10.5,'11111222,11111222,11111222' 
TCOON,ioos:station:TCOON:006:1,2009-05-02T06:00:00Z,27.8217,-97.2040,0.0,7.1,137.0,10.4,'11111222,11111222,11111222' 
TCOON,ioos:station:TCOON:006:1,2009-05-02T07:00:00Z,27.8217,-97.2040,0.0,6.4,144.0,9.1,'11111222,11111222,11111222' 
TCOON,ioos:station:TCOON:006:1,2009-05-02T08:00:00Z,27.8217,-97.2040,0.0,6.9,153.0,10.1,'11111222,11111222,11111222' 
TCOON,ioos:station:TCOON:006:1,2009-05-02T09:00:00Z,27.8217,-97.2040,0.0,7.6,156.0,9.9,'11111222,11111222,11111222' 
TCOON,ioos:station:TCOON:006:1,2009-05-02T10:00:00Z,27.8217,-97.2040,0.0,8.5,142.0,11.5,'11111222,11111222,11111222' 
TCOON,ioos:station:TCOON:006:1,2009-05-02T11:00:00Z,27.8217,-97.2040,0.0,8.5,145.0,10.3,'11111222,11111222,11111222' 
TCOON,ioos:station:TCOON:006:1,2009-05-02T12:00:00Z,27.8217,-97.2040,0.0,7.9,143.0,10.6,'11111222,11111222,11111222' 
TCOON,ioos:station:TCOON:006:1,2009-05-02T13:00:00Z,27.8217,-97.2040,0.0,8.7,144.0,9.7,'11111222,11111222,11111222' 
TCOON,ioos:station:TCOON:006:1,2009-05-02T14:00:00Z,27.8217,-97.2040,0.0,7.7,142.0,10.3,'11111222,11111222,11111222' 
TCOON,ioos:station:TCOON:006:1,2009-05-02T15:00:00Z,27.8217,-97.2040,0.0,7.6,144.0,11.5,'11111222,11111222,11111222' 
TCOON,ioos:station:TCOON:006:1,2009-05-02T16:00:00Z,27.8217,-97.2040,0.0,8.5,146.0,11.3,'11111222,11111222,11111222' 
TCOON,ioos:station:TCOON:006:1,2009-05-02T17:00:00Z,27.8217,-97.2040,0.0,9.8,150.0,12.5,'11111222,11111222,11111222' 
TCOON,ioos:station:TCOON:006:1,2009-05-02T18:00:00Z,27.8217,-97.2040,0.0,9.3,141.0,11.7,'11111222,11111222,11111222' 
TCOON,ioos:station:TCOON:006:1,2009-05-02T19:00:00Z,27.8217,-97.2040,0.0,9.5,130.0,13.5,'11111222,11111222,11111222' 
TCOON,ioos:station:TCOON:006:1,2009-05-02T20:00:00Z,27.8217,-97.2040,0.0,7.5,129.0,11.1,'11111222,11111222,11111222' 
TCOON,ioos:station:TCOON:006:1,2009-05-02T21:00:00Z,27.8217,-97.2040,0.0,7.6,124.0,10.0,'11111222,11111222,11111222' 
TCOON,ioos:station:TCOON:006:1,2009-05-02T22:00:00Z,27.8217,-97.2040,0.0,8.1,117.0,10.8,'11111222,11111222,11111222' 
TCOON,ioos:station:TCOON:006:1,2009-05-02T23:00:00Z,27.8217,-97.2040,0.0,6.9,111.0,9.4,'11111222,11111222,11111222' 
TCOON,ioos:station:TCOON:006:1,2009-05-03T00:00:00Z,27.8217,-97.2040,0.0,10.1,117.0,12.5,'11111222,11111222,11111222' 
TCOON,ioos:station:TCOON:006:1,2009-05-03T01:00:00Z,27.8217,-97.2040,0.0,7.8,113.0,11.5,'11111222,11111222,11111222' 
TCOON,ioos:station:TCOON:006:1,2009-05-03T02:00:00Z,27.8217,-97.2040,0.0,8.5,121.0,10.3,'11111222,11111222,11111222' 
TCOON,ioos:station:TCOON:006:1,2009-05-03T03:00:00Z,27.8217,-97.2040,0.0,6.3,134.0,10.4,'11111222,11111222,11111222' 
TCOON,ioos:station:TCOON:006:1,2009-05-03T04:00:00Z,27.8217,-97.2040,0.0,6.5,135.0,10.2,'11111222,11111222,11111222' 
TCOON,ioos:station:TCOON:006:1,2009-05-03T05:00:00Z,27.8217,-97.2040,0.0,6.5,158.0,8.7,'11111222,11111222,11111222' 
TCOON,ioos:station:TCOON:006:1,2009-05-03T06:00:00Z,27.8217,-97.2040,0.0,7.0,151.0,9.2,'11111222,11111222,11111222' 
TCOON,ioos:station:TCOON:006:1,2009-05-03T07:00:00Z,27.8217,-97.2040,0.0,6.5,152.0,8.7,'11111222,11111222,11111222' 
TCOON,ioos:station:TCOON:006:1,2009-05-03T08:00:00Z,27.8217,-97.2040,0.0,5.8,153.0,9.2,'11111222,11111222,11111222' 
TCOON,ioos:station:TCOON:006:1,2009-05-03T09:00:00Z,27.8217,-97.2040,0.0,7.2,148.0,9.0,'11111222,11111222,11111222' 
TCOON,ioos:station:TCOON:006:1,2009-05-03T10:00:00Z,27.8217,-97.2040,0.0,6.9,153.0,10.3,'11111222,11111222,11111222' 
TCOON,ioos:station:TCOON:006:1,2009-05-03T11:00:00Z,27.8217,-97.2040,0.0,7.4,158.0,9.8,'11111222,11111222,11111222' 
TCOON,ioos:station:TCOON:006:1,2009-05-03T12:00:00Z,27.8217,-97.2040,0.0,7.7,169.0,9.2,'11111222,11111222,11111222' 
TCOON,ioos:station:TCOON:006:1,2009-05-03T13:00:00Z,27.8217,-97.2040,0.0,4.9,222.0,8.0,'11111222,11111222,11111222' 
TCOON,ioos:station:TCOON:006:1,2009-05-03T14:00:00Z,27.8217,-97.2040,0.0,7.0,172.0,7.9,'11111222,11111222,11111222' 
TCOON,ioos:station:TCOON:006:1,2009-05-03T15:00:00Z,27.8217,-97.2040,0.0,7.8,167.0,8.8,'11111222,11111222,11111222' 
TCOON,ioos:station:TCOON:006:1,2009-05-03T16:00:00Z,27.8217,-97.2040,0.0,8.4,158.0,9.8,'11111222,11111222,11111222' 
TCOON,ioos:station:TCOON:006:1,2009-05-03T17:00:00Z,27.8217,-97.2040,0.0,7.9,151.0,10.2,'11111222,11111222,11111222' 
TCOON,ioos:station:TCOON:006:1,2009-05-03T18:00:00Z,27.8217,-97.2040,0.0,8.0,144.0,10.8,'11111222,11111222,11111222' 
TCOON,ioos:station:TCOON:006:1,2009-05-03T19:00:00Z,27.8217,-97.2040,0.0,7.0,140.0,8.9,'11111222,11111222,11111222' 
TCOON,ioos:station:TCOON:006:1,2009-05-03T20:00:00Z,27.8217,-97.2040,0.0,6.8,135.0,9.1,'11111222,11111222,11111222' 
TCOON,ioos:station:TCOON:006:1,2009-05-03T21:00:00Z,27.8217,-97.2040,0.0,6.7,133.0,9.9,'11111222,11111222,11111222' 
TCOON,ioos:station:TCOON:006:1,2009-05-03T22:00:00Z,27.8217,-97.2040,0.0,6.4,125.0,8.0,'11111222,11111222,11111222' 
TCOON,ioos:station:TCOON:006:1,2009-05-03T23:00:00Z,27.8217,-97.2040,0.0,2.9,102.0,5.0,'11111222,11111222,11111222' 
TCOON,ioos:station:TCOON:006:1,2009-05-04T00:00:00Z,27.8217,-97.2040,0.0,3.9,89.0,4.9,'11111222,11111222,11111222' 
TCOON,ioos:station:TCOON:006:1,2009-05-04T01:00:00Z,27.8217,-97.2040,0.0,4.2,85.0,5.7,'11111222,11111222,11111222' 
TCOON,ioos:station:TCOON:006:1,2009-05-04T02:00:00Z,27.8217,-97.2040,0.0,3.3,88.0,5.8,'11111222,11111222,11111222' 
TCOON,ioos:station:TCOON:006:1,2009-05-04T03:00:00Z,27.8217,-97.2040,0.0,3.5,80.0,5.1,'11111222,11111222,11111222' 
TCOON,ioos:station:TCOON:006:1,2009-05-04T04:00:00Z,27.8217,-97.2040,0.0,3.4,59.0,5.4,'11111222,11111222,11111222' 
TCOON,ioos:station:TCOON:006:1,2009-05-04T05:00:00Z,27.8217,-97.2040,0.0,3.4,69.0,5.2,'11111222,11111222,11111222' 
TCOON,ioos:station:TCOON:006:1,2009-05-04T06:00:00Z,27.8217,-97.2040,0.0,3.6,72.0,5.1,'11111222,11111222,11111222' 
TCOON,ioos:station:TCOON:006:1,2009-05-04T07:00:00Z,27.8217,-97.2040,0.0,3.3,74.0,4.9,'11111222,11111222,11111222' 
TCOON,ioos:station:TCOON:006:1,2009-05-04T08:00:00Z,27.8217,-97.2040,0.0,3.2,72.0,4.3,'11111222,11111222,11111222' 
TCOON,ioos:station:TCOON:006:1,2009-05-04T09:00:00Z,27.8217,-97.2040,0.0,3.1,66.0,4.4,'11111222,11111222,11111222' 
TCOON,ioos:station:TCOON:006:1,2009-05-04T10:00:00Z,27.8217,-97.2040,0.0,2.3,45.0,3.5,'11111222,11111222,11111222' 
TCOON,ioos:station:TCOON:006:1,2009-05-04T11:00:00Z,27.8217,-97.2040,0.0,1.9,17.0,4.9,'11111222,11111222,11111222' 
TCOON,ioos:station:TCOON:006:1,2009-05-04T12:00:00Z,27.8217,-97.2040,0.0,3.2,19.0,6.2,'11111222,11111222,11111222' 
TCOON,ioos:station:TCOON:006:1,2009-05-04T13:00:00Z,27.8217,-97.2040,0.0,4.7,32.0,7.7,'11111222,11111222,11111222' 
TCOON,ioos:station:TCOON:006:1,2009-05-04T14:00:00Z,27.8217,-97.2040,0.0,4.6,49.0,8.5,'11111222,11111222,11111222' 
TCOON,ioos:station:TCOON:006:1,2009-05-04T15:00:00Z,27.8217,-97.2040,0.0,3.7,49.0,7.2,'11111222,11111222,11111222' 
TCOON,ioos:station:TCOON:006:1,2009-05-04T16:00:00Z,27.8217,-97.2040,0.0,3.5,45.0,6.3,'11111222,11111222,11111222' 
TCOON,ioos:station:TCOON:006:1,2009-05-04T17:00:00Z,27.8217,-97.2040,0.0,4.2,61.0,6.1,'11111222,11111222,11111222' 
TCOON,ioos:station:TCOON:006:1,2009-05-04T19:00:00Z,27.8217,-97.2040,0.0,5.3,68.0,7.5,'11111222,11111222,11111222' 
TCOON,ioos:station:TCOON:006:1,2009-05-04T20:00:00Z,27.8217,-97.2040,0.0,6.1,78.0,7.3,'11111222,11111222,11111222' 
TCOON,ioos:station:TCOON:006:1,2009-05-04T21:00:00Z,27.8217,-97.2040,0.0,5.5,80.0,6.9,'11111222,11111222,11111222' 
TCOON,ioos:station:TCOON:006:1,2009-05-04T22:00:00Z,27.8217,-97.2040,0.0,5.3,72.0,6.9,'11111222,11111222,11111222' 
TCOON,ioos:station:TCOON:006:1,2009-05-04T23:00:00Z,27.8217,-97.2040,0.0,5.1,85.0,7.6,'11111222,11111222,11111222' 
TCOON,ioos:station:TCOON:006:1,2009-05-05T00:00:00Z,27.8217,-97.2040,0.0,5.0,85.0,7.1,'11111222,11111222,11111222' 
TCOON,ioos:station:TCOON:006:1,2009-05-05T01:00:00Z,27.8217,-97.2040,0.0,4.6,85.0,6.5,'11111222,11111222,11111222' 
TCOON,ioos:station:TCOON:006:1,2009-05-05T02:00:00Z,27.8217,-97.2040,0.0,4.1,96.0,5.9,'11111222,11111222,11111222' 
TCOON,ioos:station:TCOON:006:1,2009-05-05T03:00:00Z,27.8217,-97.2040,0.0,4.7,112.0,6.3,'11111222,11111222,11111222' 
TCOON,ioos:station:TCOON:006:1,2009-05-05T04:00:00Z,27.8217,-97.2040,0.0,4.2,101.0,6.9,'11111222,11111222,11111222' 
TCOON,ioos:station:TCOON:006:1,2009-05-05T05:00:00Z,27.8217,-97.2040,0.0,6.1,118.0,8.3,'11111222,11111222,11111222' 
TCOON,ioos:station:TCOON:006:1,2009-05-05T06:00:00Z,27.8217,-97.2040,0.0,6.0,121.0,8.3,'11111222,11111222,11111222' 
TCOON,ioos:station:TCOON:006:1,2009-05-05T07:00:00Z,27.8217,-97.2040,0.0,5.6,106.0,8.3,'11111222,11111222,11111222' 
TCOON,ioos:station:TCOON:006:1,2009-05-05T08:00:00Z,27.8217,-97.2040,0.0,6.3,108.0,8.5,'11111222,11111222,11111222' 
TCOON,ioos:station:TCOON:006:1,2009-05-05T09:00:00Z,27.8217,-97.2040,0.0,5.8,112.0,7.9,'11111222,11111222,11111222' 
TCOON,ioos:station:TCOON:006:1,2009-05-05T10:00:00Z,27.8217,-97.2040,0.0,4.7,112.0,6.7,'11111222,11111222,11111222' 
TCOON,ioos:station:TCOON:006:1,2009-05-05T11:00:00Z,27.8217,-97.2040,0.0,5.8,124.0,7.2,'11111222,11111222,11111222' 
TCOON,ioos:station:TCOON:006:1,2009-05-05T12:00:00Z,27.8217,-97.2040,0.0,5.6,123.0,7.4,'11111222,11111222,11111222' 
TCOON,ioos:station:TCOON:006:1,2009-05-05T13:00:00Z,27.8217,-97.2040,0.0,5.5,138.0,7.8,'11111222,11111222,11111222' 
TCOON,ioos:station:TCOON:006:1,2009-05-05T14:00:00Z,27.8217,-97.2040,0.0,5.8,155.0,8.0,'11111222,11111222,11111222' 
TCOON,ioos:station:TCOON:006:1,2009-05-05T15:00:00Z,27.8217,-97.2040,0.0,7.0,153.0,9.1,'11111222,11111222,11111222' 
TCOON,ioos:station:TCOON:006:1,2009-05-05T16:00:00Z,27.8217,-97.2040,0.0,8.2,144.0,10.4,'11111222,11111222,11111222' 
TCOON,ioos:station:TCOON:006:1,2009-05-05T17:00:00Z,27.8217,-97.2040,0.0,5.9,137.0,8.9,'11111222,11111222,11111222' 
TCOON,ioos:station:TCOON:006:1,2009-05-05T18:00:00Z,27.8217,-97.2040,0.0,9.5,143.0,10.9,'11111222,11111222,11111222' 
TCOON,ioos:station:TCOON:006:1,2009-05-05T19:00:00Z,27.8217,-97.2040,0.0,7.1,135.0,10.3,'11111222,11111222,11111222' 
TCOON,ioos:station:TCOON:006:1,2009-05-05T20:00:00Z,27.8217,-97.2040,0.0,7.3,146.0,9.8,'11111222,11111222,11111222' 
TCOON,ioos:station:TCOON:006:1,2009-05-05T21:00:00Z,27.8217,-97.2040,0.0,7.2,141.0,9.2,'11111222,11111222,11111222' 
TCOON,ioos:station:TCOON:006:1,2009-05-05T22:00:00Z,27.8217,-97.2040,0.0,6.8,135.0,9.7,'11111222,11111222,11111222' 
TCOON,ioos:station:TCOON:006:1,2009-05-05T23:00:00Z,27.8217,-97.2040,0.0,7.2,126.0,10.4,'11111222,11111222,11111222' 
TCOON,ioos:station:TCOON:006:1,2009-05-06T00:00:00Z,27.8217,-97.2040,0.0,7.3,132.0,9.8,'11111222,11111222,11111222' 
TCOON,ioos:station:TCOON:006:1,2009-05-06T01:00:00Z,27.8217,-97.2040,0.0,6.5,133.0,9.0,'11111222,11111222,11111222' 
TCOON,ioos:station:TCOON:006:1,2009-05-06T02:00:00Z,27.8217,-97.2040,0.0,7.1,137.0,10.1,'11111222,11111222,11111222' 
TCOON,ioos:station:TCOON:006:1,2009-05-06T03:00:00Z,27.8217,-97.2040,0.0,6.0,140.0,9.0,'11111222,11111222,11111222' 
TCOON,ioos:station:TCOON:006:1,2009-05-06T04:00:00Z,27.8217,-97.2040,0.0,8.0,144.0,10.3,'11111222,11111222,11111222' 
TCOON,ioos:station:TCOON:006:1,2009-05-06T05:00:00Z,27.8217,-97.2040,0.0,7.9,150.0,10.8,'11111222,11111222,11111222' 
TCOON,ioos:station:TCOON:006:1,2009-05-06T06:00:00Z,27.8217,-97.2040,0.0,6.1,153.0,8.7,'11111222,11111222,11111222' 
TCOON,ioos:station:TCOON:006:1,2009-05-06T07:00:00Z,27.8217,-97.2040,0.0,8.6,148.0,10.7,'11111222,11111222,11111222' 
TCOON,ioos:station:TCOON:006:1,2009-05-06T08:00:00Z,27.8217,-97.2040,0.0,7.8,152.0,11.0,'11111222,11111222,11111222' 
TCOON,ioos:station:TCOON:006:1,2009-05-06T09:00:00Z,27.8217,-97.2040,0.0,7.7,156.0,10.5,'11111222,11111222,11111222' 
TCOON,ioos:station:TCOON:006:1,2009-05-06T10:00:00Z,27.8217,-97.2040,0.0,7.2,150.0,10.0,'11111222,11111222,11111222' 
TCOON,ioos:station:TCOON:006:1,2009-05-06T11:00:00Z,27.8217,-97.2040,0.0,8.0,162.0,9.7,'11111222,11111222,11111222' 
TCOON,ioos:station:TCOON:006:1,2009-05-06T12:00:00Z,27.8217,-97.2040,0.0,6.5,157.0,8.4,'11111222,11111222,11111222' 
TCOON,ioos:station:TCOON:006:1,2009-05-06T13:00:00Z,27.8217,-97.2040,0.0,6.6,158.0,9.6,'11111222,11111222,11111222' 
TCOON,ioos:station:TCOON:006:1,2009-05-06T14:00:00Z,27.8217,-97.2040,0.0,7.9,165.0,9.7,'11111222,11111222,11111222' 
TCOON,ioos:station:TCOON:006:1,2009-05-06T15:00:00Z,27.8217,-97.2040,0.0,8.6,157.0,10.1,'11111222,11111222,11111222' 
TCOON,ioos:station:TCOON:006:1,2009-05-06T16:00:00Z,27.8217,-97.2040,0.0,7.1,153.0,10.9,'11111222,11111222,11111222' 
TCOON,ioos:station:TCOON:006:1,2009-05-06T17:00:00Z,27.8217,-97.2040,0.0,8.0,146.0,10.1,'11111222,11111222,11111222' 
TCOON,ioos:station:TCOON:006:1,2009-05-06T18:00:00Z,27.8217,-97.2040,0.0,7.0,135.0,10.7,'11111222,11111222,11111222' 
TCOON,ioos:station:TCOON:006:1,2009-05-06T19:00:00Z,27.8217,-97.2040,0.0,7.5,144.0,10.3,'11111222,11111222,11111222' 
TCOON,ioos:station:TCOON:006:1,2009-05-06T20:00:00Z,27.8217,-97.2040,0.0,7.3,136.0,9.8,'11111222,11111222,11111222' 
TCOON,ioos:station:TCOON:006:1,2009-05-06T21:00:00Z,27.8217,-97.2040,0.0,7.7,139.0,10.5,'11111222,11111222,11111222' 
TCOON,ioos:station:TCOON:006:1,2009-05-06T22:00:00Z,27.8217,-97.2040,0.0,7.6,134.0,10.6,'11111222,11111222,11111222' 
TCOON,ioos:station:TCOON:006:1,2009-05-06T23:00:00Z,27.8217,-97.2040,0.0,8.6,133.0,11.5,'11111222,11111222,11111222' 
TCOON,ioos:station:TCOON:006:1,2009-05-07T00:00:00Z,27.8217,-97.2040,0.0,7.9,131.0,9.8,'11111222,11111222,11111222' 
TCOON,ioos:station:TCOON:006:1,2009-05-07T01:00:00Z,27.8217,-97.2040,0.0,6.9,127.0,9.4,'11111222,11111222,11111222' 
TCOON,ioos:station:TCOON:006:1,2009-05-07T02:00:00Z,27.8217,-97.2040,0.0,7.4,117.0,9.5,'11111222,11111222,11111222' 
TCOON,ioos:station:TCOON:006:1,2009-05-07T03:00:00Z,27.8217,-97.2040,0.0,6.0,110.0,7.9,'11111222,11111222,11111222' 
TCOON,ioos:station:TCOON:006:1,2009-05-07T04:00:00Z,27.8217,-97.2040,0.0,5.4,125.0,6.9,'11111222,11111222,11111222' 
TCOON,ioos:station:TCOON:006:1,2009-05-07T05:00:00Z,27.8217,-97.2040,0.0,6.1,142.0,7.7,'11111222,11111222,11111222' 
TCOON,ioos:station:TCOON:006:1,2009-05-07T06:00:00Z,27.8217,-97.2040,0.0,5.2,142.0,6.9,'11111222,11111222,11111222' 
TCOON,ioos:station:TCOON:006:1,2009-05-07T07:00:00Z,27.8217,-97.2040,0.0,5.7,123.0,7.2,'11111222,11111222,11111222' 
TCOON,ioos:station:TCOON:006:1,2009-05-07T08:00:00Z,27.8217,-97.2040,0.0,5.6,132.0,7.6,'11111222,11111222,11111222' 
TCOON,ioos:station:TCOON:006:1,2009-05-07T09:00:00Z,27.8217,-97.2040,0.0,5.2,127.0,7.4,'11111222,11111222,11111222' 
TCOON,ioos:station:TCOON:006:1,2009-05-07T10:00:00Z,27.8217,-97.2040,0.0,4.3,128.0,6.9,'11111222,11111222,11111222' 
TCOON,ioos:station:TCOON:006:1,2009-05-07T11:00:00Z,27.8217,-97.2040,0.0,4.6,127.0,6.4,'11111222,11111222,11111222' 
TCOON,ioos:station:TCOON:006:1,2009-05-07T12:00:00Z,27.8217,-97.2040,0.0,5.7,138.0,7.7,'11111222,11111222,11111222' 
TCOON,ioos:station:TCOON:006:1,2009-05-07T13:00:00Z,27.8217,-97.2040,0.0,5.0,135.0,7.2,'11111222,11111222,11111222' 
TCOON,ioos:station:TCOON:006:1,2009-05-07T14:00:00Z,27.8217,-97.2040,0.0,6.3,141.0,7.3,'11111222,11111222,11111222' 
TCOON,ioos:station:TCOON:006:1,2009-05-07T15:00:00Z,27.8217,-97.2040,0.0,6.0,143.0,7.7,'11111222,11111222,11111222' 
TCOON,ioos:station:TCOON:006:1,2009-05-07T16:00:00Z,27.8217,-97.2040,0.0,6.5,144.0,10.1,'11111222,11111222,11111222' 
TCOON,ioos:station:TCOON:006:1,2009-05-07T17:00:00Z,27.8217,-97.2040,0.0,8.0,147.0,10.8,'11111222,11111222,11111222' 
TCOON,ioos:station:TCOON:006:1,2009-05-07T18:00:00Z,27.8217,-97.2040,0.0,7.5,141.0,10.8,'11111222,11111222,11111222' 
TCOON,ioos:station:TCOON:006:1,2009-05-07T19:00:00Z,27.8217,-97.2040,0.0,6.8,130.0,9.8,'11111222,11111222,11111222' 
TCOON,ioos:station:TCOON:006:1,2009-05-07T20:00:00Z,27.8217,-97.2040,0.0,7.9,123.0,10.1,'11111222,11111222,11111222' 
TCOON,ioos:station:TCOON:006:1,2009-05-07T21:00:00Z,27.8217,-97.2040,0.0,9.0,115.0,11.2,'11111222,11111222,11111222' 
TCOON,ioos:station:TCOON:006:1,2009-05-07T22:00:00Z,27.8217,-97.2040,0.0,7.5,105.0,10.7,'11111222,11111222,11111222' 
TCOON,ioos:station:TCOON:006:1,2009-05-07T23:00:00Z,27.8217,-97.2040,0.0,6.6,106.0,9.6,'11111222,11111222,11111222' 
TCOON,ioos:station:TCOON:006:1,2009-05-08T00:00:00Z,27.8217,-97.2040,0.0,5.5,112.0,8.3,'11111222,11111222,11111222' 
TCOON,ioos:station:TCOON:006:1,2009-05-08T01:00:00Z,27.8217,-97.2040,0.0,5.9,112.0,9.2,'11111222,11111222,11111222' 
TCOON,ioos:station:TCOON:006:1,2009-05-08T02:00:00Z,27.8217,-97.2040,0.0,4.9,111.0,9.2,'11111222,11111222,11111222' 
TCOON,ioos:station:TCOON:006:1,2009-05-08T03:00:00Z,27.8217,-97.2040,0.0,5.1,125.0,9.2,'11111222,11111222,11111222' 
TCOON,ioos:station:TCOON:006:1,2009-05-08T04:00:00Z,27.8217,-97.2040,0.0,5.8,132.0,8.7,'11111222,11111222,11111222' 
TCOON,ioos:station:TCOON:006:1,2009-05-08T05:00:00Z,27.8217,-97.2040,0.0,7.5,142.0,10.0,'11111222,11111222,11111222' 
TCOON,ioos:station:TCOON:006:1,2009-05-08T06:00:00Z,27.8217,-97.2040,0.0,7.2,143.0,9.4,'11111222,11111222,11111222' 
TCOON,ioos:station:TCOON:006:1,2009-05-08T07:00:00Z,27.8217,-97.2040,0.0,7.9,156.0,10.9,'11111222,11111222,11111222' 
TCOON,ioos:station:TCOON:006:1,2009-05-08T08:00:00Z,27.8217,-97.2040,0.0,9.2,161.0,11.5,'11111222,11111222,11111222' 
TCOON,ioos:station:TCOON:006:1,2009-05-08T09:00:00Z,27.8217,-97.2040,0.0,7.6,156.0,11.7,'11111222,11111222,11111222' 
TCOON,ioos:station:TCOON:006:1,2009-05-08T10:00:00Z,27.8217,-97.2040,0.0,11.4,163.0,14.4,'11111222,11111222,11111222' 
TCOON,ioos:station:TCOON:006:1,2009-05-08T11:00:00Z,27.8217,-97.2040,0.0,8.5,151.0,11.1,'11111222,11111222,11111222' 
TCOON,ioos:station:TCOON:006:1,2009-05-08T12:00:00Z,27.8217,-97.2040,0.0,7.6,158.0,9.3,'11111222,11111222,11111222' 
TCOON,ioos:station:TCOON:006:1,2009-05-08T13:00:00Z,27.8217,-97.2040,0.0,7.0,153.0,10.1,'11111222,11111222,11111222' 
TCOON,ioos:station:TCOON:006:1,2009-05-08T14:00:00Z,27.8217,-97.2040,0.0,6.1,153.0,10.1,'11111222,11111222,11111222' 
TCOON,ioos:station:TCOON:006:1,2009-05-08T15:00:00Z,27.8217,-97.2040,0.0,8.9,161.0,10.7,'11111222,11111222,11111222' 
TCOON,ioos:station:TCOON:006:1,2009-05-08T16:00:00Z,27.8217,-97.2040,0.0,9.5,157.0,11.6,'11111222,11111222,11111222' 
TCOON,ioos:station:TCOON:006:1,2009-05-08T17:00:00Z,27.8217,-97.2040,0.0,8.9,149.0,12.9,'11111222,11111222,11111222' 
TCOON,ioos:station:TCOON:006:1,2009-05-08T18:00:00Z,27.8217,-97.2040,0.0,9.0,149.0,13.0,'11111222,11111222,11111222' 
TCOON,ioos:station:TCOON:006:1,2009-05-08T19:00:00Z,27.8217,-97.2040,0.0,8.8,140.0,11.8,'11111222,11111222,11111222' 
TCOON,ioos:station:TCOON:006:1,2009-05-08T20:00:00Z,27.8217,-97.2040,0.0,8.8,141.0,11.5,'11111222,11111222,11111222' 
TCOON,ioos:station:TCOON:006:1,2009-05-08T21:00:00Z,27.8217,-97.2040,0.0,8.3,139.0,11.5,'11111222,11111222,11111222' 
TCOON,ioos:station:TCOON:006:1,2009-05-08T22:00:00Z,27.8217,-97.2040,0.0,6.9,137.0,10.7,'11111222,11111222,11111222' 
TCOON,ioos:station:TCOON:006:1,2009-05-08T23:00:00Z,27.8217,-97.2040,0.0,7.8,141.0,10.7,'11111222,11111222,11111222' 
TCOON,ioos:station:TCOON:006:1,2009-05-09T00:00:00Z,27.8217,-97.2040,0.0,6.5,133.0,9.5,'11111222,11111222,11111222' 
TCOON,ioos:station:TCOON:006:1,2009-05-09T01:00:00Z,27.8217,-97.2040,0.0,6.6,133.0,10.1,'11111222,11111222,11111222' 
TCOON,ioos:station:TCOON:006:1,2009-05-09T02:00:00Z,27.8217,-97.2040,0.0,8.1,140.0,11.4,'11111222,11111222,11111222' 
TCOON,ioos:station:TCOON:006:1,2009-05-09T03:00:00Z,27.8217,-97.2040,0.0,8.0,143.0,9.6,'11111222,11111222,11111222' 
TCOON,ioos:station:TCOON:006:1,2009-05-09T04:00:00Z,27.8217,-97.2040,0.0,7.7,144.0,10.1,'11111222,11111222,11111222' 
TCOON,ioos:station:TCOON:006:1,2009-05-09T05:00:00Z,27.8217,-97.2040,0.0,8.2,150.0,10.8,'11111222,11111222,11111222' 
TCOON,ioos:station:TCOON:006:1,2009-05-09T06:00:00Z,27.8217,-97.2040,0.0,6.8,154.0,9.0,'11111222,11111222,11111222' 
TCOON,ioos:station:TCOON:006:1,2009-05-09T07:00:00Z,27.8217,-97.2040,0.0,9.2,171.0,11.3,'11111222,11111222,11111222' 
TCOON,ioos:station:TCOON:006:1,2009-05-09T08:00:00Z,27.8217,-97.2040,0.0,8.4,168.0,10.9,'11111222,11111222,11111222' 
TCOON,ioos:station:TCOON:006:1,2009-05-09T09:00:00Z,27.8217,-97.2040,0.0,8.8,160.0,11.0,'11111222,11111222,11111222' 
TCOON,ioos:station:TCOON:006:1,2009-05-09T10:00:00Z,27.8217,-97.2040,0.0,8.0,159.0,10.0,'11111222,11111222,11111222' 
TCOON,ioos:station:TCOON:006:1,2009-05-09T11:00:00Z,27.8217,-97.2040,0.0,6.0,149.0,8.7,'11111222,11111222,11111222' 
TCOON,ioos:station:TCOON:006:1,2009-05-09T12:00:00Z,27.8217,-97.2040,0.0,6.3,124.0,8.6,'11111222,11111222,11111222' 